LEMGGMTT

Guest
Details From LEMG - Malaga
To GMTT - Ibn Batouta
Flight Number -
Tags Generated
Created
Modified
Stats Distance 90 nm / 166 km
Max Altitude 0 ft / 0 m
Waypoints 2
Social Downloads 1
Likes 0
Share VATSIM

Download

Looking for another format? Having issues loading an existing format? Contact us
Advertisement - Login to hide

Notes

Generated

Route

LEMG GMTT

ID Type Via Altitude Latitude Longitude Leg Dist Tot Dist Heading (true) Name
O LEMG APT - 0 ft / 0 m 36.68453˚ -4.51259˚ - 0 nm - -
O GMTT APT - 0 ft / 0 m 35.71911˚ -5.92312˚ 89 nm 89 nm 230° / 229° -

Altitude Profile

Advertisement - Login to hide

LEMG

Details ICAO LEMG (AGP)
Name Malaga
Region Spain
Timezone Europe/Madrid (UTC+1.0)
Stats Elevation 52 ft / 16 m (AMSL)
Location 36.679780° -4.495899°
Runways 2
Magnetic Variation 0.877° W

METAR

LEMG 151230Z 32012KT 9999 SCT030 BKN060 20/12 Q1015 NOSIG

Decode

TAF

TAF TAF LEMG 151100Z 1512/1612 29009KT 9999 SCT030 SCT060 TX20/1513Z TN09/1608Z PROB40 TEMPO 1512/1517 29015G25KT PROB30 TEMPO 1601/1608 30015G25KT

Decode

Departure Runways

ID Width Length Bearing (true) Bearing (mag) Surface Threshold Offset Overrun Length
12 148 ft / 45 m 10,057 ft / 3,065 m 117.76° 118.64° Asphalt 0 ft / 0 m 650 ft / 198 m
13 148 ft / 45 m 10,509 ft / 3,203 m 131.69° 132.57° Asphalt 0 ft / 0 m 246 ft / 75 m
30 148 ft / 45 m 10,057 ft / 3,065 m 297.78° 298.66° Asphalt 1,115 ft / 340 m 466 ft / 142 m
31 148 ft / 45 m 10,509 ft / 3,203 m 311.70° 312.58° Asphalt 0 ft / 0 m 246 ft / 75 m

GMTT

Details ICAO GMTT (TNG)
Name IBN BATOUTA
Region Morocco
Timezone Africa/Casablanca (UTC+0.0)
Stats Elevation 62 ft / 19 m (AMSL)
Location 35.726911° -5.916900°
Runways 2
Magnetic Variation 1.289° W

METAR

GMTT 151230Z 21014KT 6000 SCT011 BKN016 14/12 Q1019 NOSIG

Decode

TAF

TAF GMTT 151100Z 1412/1518 19014KT 4000 BR FEW005 BKN016 TEMPO 1414/1419 3000 RA FEW008 BKN015 TEMPO 1422/1505 3000 RA FEW010 BKN016 BECMG 1507/1509 26008KT 8000 SCT016

Decode

Destination Runways

ID Width Length Bearing (true) Bearing (mag) Surface Threshold Offset Overrun Length
07 98 ft / 30 m 6,555 ft / 1,998 m 69.91° 71.20° Asphalt 0 ft / 0 m 0 ft / 0 m
10 148 ft / 45 m 11,465 ft / 3,495 m 96.01° 97.30° Asphalt 0 ft / 0 m 197 ft / 60 m
25 98 ft / 30 m 6,555 ft / 1,998 m 249.92° 251.21° Asphalt 0 ft / 0 m 0 ft / 0 m
28 148 ft / 45 m 11,465 ft / 3,495 m 276.03° 277.32° Asphalt 1,640 ft / 500 m 197 ft / 60 m

Approach Navaids

Runway Type Ident Frequency Range Bearing (true) Bearing (mag) Slope Elevation
28 Localiser TAG 109.30 MHz 18 nm / 33 km 276.22° 277.51° - 62 ft / 19 m (AMSL)
28 Glidescope TAG 109.30 MHz 10 nm / 19 km 276.02° 277.31° 2.99° 52 ft / 16 m (AMSL)

Popular Alternatives